ロニオス彗星

201P/LONEOS (2002)

English version
Home page
Updated on May 5, 2012

---------------------------------------------------------------------

・ プロフィール

符号 201P/2001 R1
発見日 2001年 9月10日
発見光度 17.6等
発見者 Lowell Observatory Near-Earth Object Search

・ 軌道要素

Epoch 2002 Feb. 15.0 TT = JDT 2452320.5
T 2002 Feb. 17.57361 TT                                 MPC
q   1.3604973            (2000.0)            P               Q
n   0.15201651     Peri.   24.73700     +0.49842496     -0.86400843
a   3.4770335      Node    35.48811     +0.77360290     +0.40622466
e   0.6087189      Incl.    7.03961     +0.39129415     +0.29744068
P   6.48
From 155 observations 2001 Aug. 9-2009 Mar. 18, mean residual 0".7.

・ 星図

・ 光度変化

        m1 = 14.0 + 5 logΔ + 10.0 log r

---------------------------------------------------------------------

軌道要素はM.P.E.C. 2012-J16に掲載されたものです。
星図は StellaNavigator Ver.2.0 for Windows (アストロアーツ編著 / アスキー出版局刊) で作成したものです。
光度グラフはComet for Windowsで作成したものです。

---------------------------------------------------------------------

Copyright(C) Seiichi Yoshida (comet@aerith.net). All rights reserved.